Meteo Giornale » Osservazioni meteo Slovenia » Portoroz

ore: 07:30 - Osservazioni Meteo Portoroz
Lat. 45° 31' N Lon. 13° 34' E Alt. 95 metri s.l.m.

sereno

20 °C

Sereno

Temp. 24 Ore

19 °C

31 °C

Est/Sud-Est

11.1 Km/h

Dew point 13 °C

Umidità 64 %

Visibilità  10 Km

Il sole sorge alle ore 06:28

Il sole tramonta alle ore 19:42

Data e Ora Cielo e Fenomeni T °C DP °C Um. % Pres. hPa Vis. km Vento km/h
Oggi h: 07:30 sereno Sereno 20 13 64 1017 10 E/SE 11.1
Oggi h: 07:00 sereno Sereno 20 13 64 1017 10 E/SE 14.8
Oggi h: 06:30 sereno Sereno 20 13 64 1017 10 E/SE 13
Oggi h: 06:00 sereno Sereno 20 14 68 1016 10 E/SE 14.8
Oggi h: 05:30 sereno Sereno 20 14 68 1017 10 E/SE 16.7
Oggi h: 05:00 sereno Sereno 20 14 68 1017 10 E/SE 13
Oggi h: 04:30 sereno Sereno 19 14 72 1017 10 SE 13
Oggi h: 04:00 sereno Sereno 19 14 72 1017 10 E/SE 14.8
Oggi h: 03:30 sereno Sereno 19 15 77 1017 10 E/SE 11.1
Oggi h: 03:00 sereno Sereno 19 15 77 1017 10 E/SE 7.4
Oggi h: 02:30 sereno Sereno 19 15 77 1017 10 E/SE 9.3
Oggi h: 02:00 sereno Sereno 19 15 77 1017 10 E/SE 9.3
Oggi h: 01:30 sereno Sereno 19 15 77 1017 10 E/SE 9.3
Oggi h: 01:00 sereno Sereno 20 15 72 1017 10 E/SE 11.1
Oggi h: 00:30 sereno Sereno 20 16 77 1017 10 E/SE 9.3
Oggi h: 00:00 sereno Sereno 21 15 68 1017 10 E/SE 11.1
Ieri h: 23:30 sereno Sereno 21 15 68 1017 10 E/SE 11.1
Ieri h: 23:00 sereno Sereno 21 16 73 1017 10 E/SE 13
Ieri h: 22:30 sereno Sereno 21 15 68 1017 10 E/SE 13
Ieri h: 22:00 sereno Sereno 22 15 64 1017 10 E/SE 11.1
Ieri h: 21:30 sereno Sereno 23 16 64 1017 10 E/SE 11.1
Ieri h: 21:00 sereno Sereno 23 16 64 1017 10 E/SE 9.3
Ieri h: 20:30 sereno Sereno 24 17 64 1017 10 SE 7.4
Ieri h: 20:00 sereno Sereno 26 18 61 1016 10 N 0
Ieri h: 19:30 sereno Sereno 28 19 58 1016 10 N 3.7
Ieri h: 19:00 sereno Sereno 29 19 54 1016 10 N 5.5
Ieri h: 18:30 sereno Sereno 30 18 48 1016 10 NO 7.4
Ieri h: 18:00 sereno Sereno 30 16 42 1016 10 NO 7.4
Ieri h: 17:30 sereno Sereno 31 14 35 1016 10 NO 9.3
Ieri h: 17:00 sereno Sereno 30 15 40 1017 10 O/NO 9.3
Ieri h: 16:30 sereno Sereno 31 15 37 1017 10 NO 11.1
Ieri h: 16:00 sereno Sereno 30 15 40 1017 10 O/NO 11.1
Ieri h: 15:30 poco_nuvoloso Poco Nuvoloso 30 15 40 1017 10 O/NO 13
Ieri h: 15:00 poco_nuvoloso Poco Nuvoloso 30 16 42 1017 10 O/NO 14.8
Ieri h: 14:30 sereno Sereno 30 16 42 1017 10 O/NO 16.7
Ieri h: 14:00 sereno Sereno 30 18 48 1017 10 O/NO 16.7
Ieri h: 13:30 sereno Sereno 30 16 42 1017 10 O/NO 9.3
Ieri h: 13:00 sereno Sereno 30 16 42 1018 10 O/NO 13
Ieri h: 12:30 sereno Sereno 30 16 42 1018 10 N 7.4
Ieri h: 12:00 sereno Sereno 30 16 42 1018 10 N 5.5
Ieri h: 11:30 sereno Sereno 30 15 40 1018 10 N 3.7
Ieri h: 11:00 sereno Sereno 28 15 45 1018 10 N 3.7
Ieri h: 10:30 nuvoloso Nuvoloso 26 17 57 1018 10 N 3.7
Ieri h: 10:00 molto_nuvoloso Molto Nuvoloso 26 17 57 1018 10 SO 16.7
Ieri h: 09:30 molto_nuvoloso Molto Nuvoloso 26 15 50 1017 10 N 3.7
Ieri h: 09:00 molto_nuvoloso Molto Nuvoloso 25 16 57 1017 10 N 3.7